Temp
18 18 19 18 18 18 17 16 15 15 14 14 14 14 13 13 13 13 13 12 12 11 11 11 10 9 9 9 8 8 8 8
16 16 17 17 17 17 17 16 16 15 14 14 13 13 13 13 12 12 11 11 11 11 10 9 8 8 8 7 7 7 7 7
15 15 15 16 15 15 15 15 14 14 13 13 13 13 13 12 11 11 10 10 9 8 8 8 7 7 7 6 6 6 6 6
15 14 14 14 14 13 13 14 14 13 13 12 12 12 12 11 11 10 9 9 8 8 7 7 7 6 6 5 5 5 5 4
14 13 13 13 12 12 12 12 12 12 11 11 11 10 10 9 9 9 8 8 7 7 7 6 6 5 5 5 4 3 3 3
14 14 13 13 12 12 12 11 11 10 10 10 10 9 8 8 7 7 7 6 6 6 6 5 4 4 3 3 3 3 3 2
15 14 13 13 12 12 11 11 11 10 10 9 9 8 8 7 7 7 6 5 5 4 3 3 2 2 2 2 2 2 2 1
14 14 13 13 12 12 11 11 10 10 10 9 8 7 7 6 6 6 5 5 4 3 2 2 1 2 2 2 1 0 -0 -0
15 14 13 13 12 12 11 11 10 9 9 8 8 7 6 5 5 4 4 3 2 1 1 1 1 0 0 -0 -0 -1 -2 -1
14 14 13 12 12 11 10 10 9 9 8 7 6 5 5 4 4 4 3 2 1 1 1 0 -0 -0 -1 -1 -2 -2 -2 -2
13 13 12 12 11 11 10 9 9 8 7 6 5 5 4 4 4 3 2 1 1 0 -0 -1 -1 -1 -2 -2 -2 -2 -3 -2
12 12 11 11 10 9 9 8 8 7 6 6 5 5 4 3 3 2 2 2 1 -0 -1 -1 -1 -2 -2 -2 -3 -3 -3 -3
12 11 10 10 9 9 8 7 7 6 6 5 4 4 4 3 3 2 2 0 -1 -1 -1 -1 -2 -2 -2 -3 -3 -3 -3 -3
10 10 9 9 8 7 7 7 6 6 5 5 4 4 3 3 2 2 1 -0 -1 -2 -2 -2 -2 -2 -3 -3 -3 -3 -4 -4
9 8 8 8 7 7 7 6 6 5 5 4 4 3 3 2 2 1 1 -0 -1 -2 -2 -2 -3 -3 -3 -4 -4 -4 -4 -5
7 7 7 7 7 6 6 6 6 5 5 4 3 3 2 2 1 -0 -1 -1 -2 -2 -2 -3 -3 -4 -4 -4 -4 -4 -5 -6
6 6 6 7 6 6 6 6 5 5 4 4 3 3 1 0 -1 -1 -3 -2 -2 -2 -3 -3 -4 -4 -4 -5 -5 -6 -6 -7
6 6 6 6 6 6 5 4 4 4 3 3 2 1 0 0 -1 -2 -3 -2 -2 -3 -3 -4 -4 -5 -5 -5 -6 -7 -7 -8
6 6 6 6 6 5 4 3 3 3 2 1 1 1 -0 -2 -2 -3 -3 -3 -3 -3 -4 -4 -5 -5 -6 -7 -7 -8 -8 -9
Height
1541 1542 1543 1547 1548 1550 1551 1554 1556 1558 1558 1557 1557 1559 1560 1559 1558 1556 1555 1554 1553 1552 1550 1548 1545 1543 1541 1539 1536 1534 1531 1528
1541 1543 1543 1546 1549 1550 1551 1551 1551 1552 1553 1555 1557 1558 1558 1558 1557 1556 1553 1550 1548 1546 1544 1542 1540 1537 1536 1534 1531 1528 1525 1524
1544 1546 1547 1550 1551 1553 1554 1554 1556 1556 1555 1555 1555 1556 1555 1555 1553 1551 1549 1547 1544 1543 1540 1537 1534 1532 1531 1529 1526 1522 1520 1519
1548 1550 1552 1554 1554 1555 1555 1554 1556 1557 1556 1555 1555 1554 1553 1552 1550 1548 1546 1543 1541 1538 1536 1533 1531 1529 1526 1524 1520 1517 1515 1515
1550 1553 1555 1557 1557 1557 1557 1557 1557 1556 1555 1554 1554 1553 1552 1551 1548 1545 1542 1539 1536 1534 1532 1529 1527 1524 1521 1518 1514 1513 1511 1509
1554 1556 1557 1558 1559 1559 1559 1559 1558 1556 1554 1553 1551 1549 1547 1545 1543 1541 1539 1537 1535 1532 1529 1525 1521 1518 1515 1513 1511 1509 1508 1506
1556 1557 1559 1559 1558 1558 1559 1559 1558 1556 1554 1552 1550 1548 1546 1543 1541 1539 1536 1533 1530 1527 1523 1519 1516 1514 1512 1510 1508 1506 1503 1502
1557 1557 1558 1558 1559 1558 1558 1556 1555 1553 1551 1549 1547 1545 1542 1539 1537 1534 1531 1529 1525 1522 1518 1516 1514 1511 1508 1506 1504 1501 1498 1497
1556 1556 1557 1557 1557 1556 1555 1554 1553 1550 1547 1544 1542 1540 1536 1535 1533 1530 1527 1524 1521 1518 1515 1512 1510 1507 1504 1501 1499 1496 1495 1493
1555 1554 1553 1554 1554 1553 1553 1551 1549 1546 1543 1540 1538 1536 1533 1531 1529 1525 1522 1521 1519 1515 1512 1509 1506 1504 1500 1497 1495 1494 1491 1489
1553 1553 1552 1552 1552 1551 1550 1547 1545 1542 1540 1537 1535 1533 1530 1528 1524 1522 1520 1519 1516 1513 1508 1506 1503 1501 1497 1494 1491 1489 1486 1484
1553 1553 1552 1551 1550 1549 1547 1544 1541 1538 1535 1534 1532 1529 1527 1525 1523 1520 1517 1514 1511 1510 1507 1503 1499 1496 1494 1491 1488 1485 1482 1481
1551 1552 1551 1549 1548 1545 1544 1541 1538 1535 1533 1530 1528 1525 1522 1519 1517 1515 1512 1509 1507 1506 1503 1500 1496 1493 1490 1487 1484 1482 1479 1477
1551 1551 1549 1547 1545 1543 1541 1538 1535 1532 1529 1526 1524 1520 1516 1512 1509 1506 1504 1503 1502 1499 1497 1495 1492 1489 1486 1483 1481 1478 1475 1472
1550 1549 1547 1544 1543 1541 1538 1536 1532 1529 1525 1522 1519 1515 1510 1506 1503 1501 1499 1496 1496 1492 1490 1489 1487 1484 1481 1479 1476 1473 1470 1466
1548 1546 1543 1542 1540 1537 1535 1532 1529 1524 1520 1516 1512 1509 1504 1497 1495 1491 1493 1489 1490 1488 1484 1484 1482 1479 1477 1474 1471 1467 1463 1459
1545 1543 1541 1539 1537 1534 1532 1529 1525 1522 1518 1512 1509 1503 1500 1499 1492 1490 1488 1483 1483 1484 1480 1478 1477 1475 1472 1469 1465 1461 1456 1451
1543 1541 1539 1537 1534 1531 1527 1524 1521 1517 1513 1509 1505 1500 1495 1491 1487 1485 1485 1482 1479 1479 1476 1474 1473 1471 1467 1463 1458 1453 1449 1445
1542 1540 1537 1534 1530 1526 1523 1520 1516 1513 1508 1503 1499 1495 1491 1489 1484 1482 1481 1479 1475 1474 1472 1470 1469 1467 1462 1457 1452 1447 1444 1441
Wind_Speed
25 22 19 15 13 10 6 4 3 2 6 4 3 4 4 5 7 9 12 14 16 19 23 26 28 29 30 32 31 28 31 34
21 18 17 12 8 4 5 6 6 5 1 3 4 5 3 3 10 14 13 12 16 22 26 23 24 27 26 27 31 32 29 28
16 13 10 7 6 3 3 3 2 1 3 4 6 7 6 4 6 7 10 12 13 16 19 20 19 21 24 29 33 33 33 28
16 15 14 11 9 6 4 4 6 6 2 3 6 9 9 10 12 15 18 20 22 22 20 19 21 25 28 28 31 34 30 26
16 12 10 8 9 6 8 10 13 14 14 14 15 17 16 17 20 20 22 24 23 24 22 25 31 31 31 33 30 27 26 27
10 7 7 9 9 10 9 7 9 12 17 19 20 19 18 15 13 18 18 20 22 24 30 33 27 25 26 24 23 25 27 26
6 5 7 8 8 9 7 3 6 10 9 10 10 10 12 15 23 26 28 28 31 34 29 23 23 22 22 24 27 30 31 28
12 8 5 4 4 3 3 7 8 10 16 18 13 12 15 16 20 26 26 31 34 27 21 20 21 24 26 27 27 26 16 23
4 7 5 2 2 6 10 12 11 12 12 14 17 19 17 17 21 24 29 28 21 16 19 26 28 24 23 23 28 19 14 20
4 7 6 2 4 7 10 12 12 14 15 13 13 14 16 21 25 28 26 22 19 20 25 24 24 25 25 28 18 22 26 26
7 6 7 8 11 14 17 16 15 13 14 13 14 18 22 24 23 22 19 21 27 26 22 25 21 20 22 23 21 21 17 18
7 8 9 10 11 10 12 16 15 13 14 16 22 25 21 20 22 21 25 32 19 17 18 21 22 24 21 20 20 19 19 19
12 12 8 8 16 21 18 13 13 17 18 20 20 23 26 24 28 30 27 24 15 16 18 19 22 22 21 20 20 21 23 22
8 5 12 22 20 15 15 16 19 19 21 26 27 25 27 26 30 28 23 22 18 16 19 22 23 22 22 21 23 24 20 20
13 16 23 21 15 17 17 19 20 27 28 24 26 27 26 29 30 28 22 20 18 18 19 23 25 23 23 22 21 23 28 31
19 23 20 15 16 16 20 23 28 26 19 27 28 32 33 29 26 25 21 17 14 18 18 23 23 22 22 24 28 32 34 35
19 20 19 19 22 24 24 24 22 21 30 31 31 25 24 36 33 19 17 13 15 18 19 20 21 23 26 28 30 33 36 36
17 17 20 19 21 18 20 21 24 26 30 28 25 29 32 24 23 19 19 17 15 17 18 17 18 23 26 29 33 33 30 27
17 20 22 25 17 21 21 22 26 28 27 26 33 30 26 26 18 17 19 12 11 16 15 16 21 24 26 30 29 26 28 30
Wind_Direction
109 118 128 122 131 141 129 166 167 229 164 156 205 262 273 255 262 271 270 277 295 306 307 297 295 305 307 299 298 296 294 296
95 99 105 97 96 141 177 226 264 278 159 205 195 197 211 263 315 316 309 305 299 297 300 300 306 308 308 308 306 308 308 302
82 83 88 105 124 121 189 227 304 247 239 243 274 282 289 324 283 271 297 303 303 301 308 312 310 309 305 307 308 307 307 302
83 85 93 105 107 87 57 8 348 14 289 276 272 271 262 255 260 288 312 309 305 308 309 305 306 308 306 305 301 301 300 296
86 81 83 90 95 72 57 26 1 349 336 332 332 329 321 306 306 306 300 298 300 304 300 308 309 307 301 302 301 298 294 302
87 49 54 54 48 30 23 54 31 10 347 334 328 325 321 321 308 299 297 299 301 301 306 310 311 309 311 310 310 306 303 305
98 93 81 49 33 10 354 314 315 331 344 337 320 310 306 298 304 308 309 314 314 315 322 322 322 317 315 310 306 305 303 299
120 124 102 86 18 20 14 331 319 300 302 305 305 311 311 310 309 311 315 313 313 328 331 323 316 310 308 304 301 300 296 314
159 131 127 105 3 332 316 311 306 306 307 311 310 310 312 317 320 321 317 319 328 324 314 313 312 314 311 306 299 311 310 314
123 106 109 64 347 334 327 316 299 297 305 310 312 317 326 323 322 313 314 317 315 312 313 312 317 314 313 322 306 311 313 310
78 42 13 343 325 321 320 314 305 293 292 301 314 321 318 313 309 307 305 307 310 314 318 316 320 322 317 316 318 319 315 324
49 23 358 342 330 335 324 317 304 297 297 306 310 315 316 312 306 300 307 317 322 319 323 324 328 327 325 323 320 322 320 315
7 0 357 339 340 330 324 312 317 320 314 314 313 304 304 300 299 299 307 331 319 316 312 314 317 322 326 323 319 318 306 300
48 8 343 340 344 338 329 322 323 316 313 316 303 301 301 296 297 297 314 320 303 303 305 311 314 316 318 315 312 306 300 299
356 341 342 343 348 336 328 322 318 318 316 311 313 310 300 293 289 292 303 310 294 296 303 307 310 313 313 313 309 305 305 306
348 349 354 353 342 332 326 323 320 315 297 297 298 302 294 275 272 273 291 299 292 291 301 311 310 308 307 304 302 304 307 307
354 345 342 342 328 323 321 326 334 328 321 319 318 305 308 295 288 276 294 291 285 293 313 315 310 305 305 306 307 311 309 310
344 340 331 329 330 328 331 326 321 323 335 332 323 322 322 304 283 285 286 281 284 302 321 314 307 308 308 311 313 316 315 315
345 334 328 326 324 328 323 327 333 333 334 333 329 334 337 327 302 299 291 278 305 319 312 306 310 309 312 316 319 315 314 316